Weather Roundup
Issued by NWS Chicago, IL

Home | Current Version | Previous Version | Graphics & Text | Print | Product List | Glossary Off
Versions: 1 2 3 4 5 6 7 8 9 10 11 12 13 14 15 16 17 18 19 20 21 22 23 24 25 26 27 28 29 30 31 32 33 34 35 36 37 38 39 40 41 42 43 44 45 46 47 48 49 50

000
NZUS59 KLOT 010402
HRRLOT

CHICAGO AREA WEATHER ROUNDUP
NATIONAL WEATHER SERVICE CHICAGO/ROMEOVILLE IL
1100 PM CDT MON AUG 31 2015

NOTE: "FAIR" INDICATES FEW OR NO CLOUDS BELOW 12,000 FEET WITH NO
SIGNIFICANT WEATHER AND/OR OBSTRUCTIONS TO VISIBILITY.

* THESE STATIONS ARE NOT UNDER NWS QUALITY CONTROL. THEY ALSO MAY NOT
  REPORT WEATHER SUCH AS PRECIPITATION OR FOG.

ILZ005-006-012>014-019>023-010500-
NORTHEAST ILLINOIS

CITY           SKY/WX    TMP DP  RH WIND       PRES   REMARKS
OHARE          CLEAR     72  68  87 CALM      30.03F
MIDWAY         CLEAR     78  68  71 S3        30.04S HX  80
AURORA         CLEAR     70  67  90 CALM      30.04F FOG
LANSING*       CLEAR     72  68  88 S3        30.05S
WAUKEGAN       CLEAR     66  66 100 CALM      30.04S FOG
DUPAGE AIRPORT CLEAR     70  67  90 CALM      30.04S FOG
WHEELING       CLEAR     70  66  87 CALM      30.05S
NORTHERLY IS     N/A     71  68  90 SE2         N/A
$$

WIZ051-052-058>065-066-070>072-010500-
SOUTHEAST WISCONSIN

CITY           SKY/WX    TMP DP  RH WIND       PRES   REMARKS
MILWAUKEE      PTCLDY    69  65  86 S6        30.03S
KENOSHA*       CLEAR     66  64  93 S3        30.05R
RACINE*        CLEAR     69  65  86 S6        30.05S
$$

INZ001>003-010>013-019-020-010500-
NORTHWEST INDIANA

CITY           SKY/WX    TMP DP  RH WIND       PRES   REMARKS
GARY*          NOT AVBL
MICHIGAN CITY* NOT AVBL
RENSSELAER*    NOT AVBL
$$

LMZ740>746-010500-
SOUTHERN LAKE MICHIGAN

STATION/POSITION TIME  SKY/WX   TEMP WIND        PRES    VSBY
                                AIR  DIR/SP/G
                 (UTC)          (F)  (DEG/KT/KT) (MB)    (MI)
HARRISON CRIB    0300            72  180/  5/  5   N/A
BURNHAM HARBOR   0400            71  140/  1/  3   N/A
CALUMET HARBOR   0300            73  150/  1/  2   N/A
BURNS HARBOR     0300            78  160/  5/  7 1017.9R
MICHIGAN CITY    0300            75  120/  5/  6   N/A
$$

ABBREVIATIONS USED IN REMARKS
   TC - TEMPERATURE IN CELSIUS
  WCI - WIND CHILL INDEX
   HX - HEAT INDEX
  VSB - VISIBILITY
$$



USA.gov is the U.S. government's official web portal to all federal, state and local government web resources and services.